SCP
4 4 4 4 4 5 6 6 7 6 6 5 4 3 2 1 0 0 0 0 0 0 0 0 0 0 0 0 0 0 0 0 0 0 0 0 0 0 0 0 0 0 0
4 4 4 4 5 6 7 7 7 7 6 6 4 3 1 1 0 0 0 0 0 0 0 0 0 0 0 0 0 0 0 0 0 0 0 0 0 0 0 0 0 0 0
3 3 3 4 5 7 8 8 8 8 7 6 4 3 1 0 0 0 0 0 0 0 0 0 0 0 0 0 0 0 0 0 0 0 0 0 0 0 0 0 0 0 0
2 3 3 4 6 8 9 9 9 8 6 5 3 2 1 0 0 0 0 0 0 0 0 0 0 0 0 0 0 0 0 0 0 0 0 0 0 0 0 0 0 0 0
2 3 3 4 6 8 9 9 7 6 4 3 2 1 0 0 0 0 0 0 0 0 0 0 0 0 0 0 0 0 0 0 0 0 0 0 0 0 0 0 0 0 0
2 3 3 4 6 8 8 7 5 4 3 2 1 0 0 0 0 0 0 0 0 0 0 0 0 0 0 0 0 0 0 0 0 0 0 0 0 0 0 0 0 0 0
3 3 4 5 6 6 6 5 3 2 1 1 0 0 0 0 0 0 0 0 0 0 0 0 0 0 0 0 0 0 0 0 0 0 0 0 0 0 0 0 0 0 0
3 3 4 5 4 4 3 2 1 1 0 0 0 0 0 0 0 0 0 0 0 0 0 0 0 0 0 0 0 0 0 0 0 0 0 0 0 0 0 0 0 0 0
2 3 3 2 2 1 1 0 0 0 0 0 0 0 0 0 0 0 0 0 0 0 0 0 0 0 0 0 0 0 0 0 0 0 0 0 0 0 0 0 0 0 0
1 1 1 1 0 0 0 0 0 0 0 0 0 0 0 0 0 0 0 0 0 0 0 0 0 0 0 0 0 0 0 0 0 0 0 0 0 0 0 0 0 0 0
0 0 0 0 0 0 0 0 0 0 0 0 0 0 0 0 0 0 0 0 0 0 0 0 0 0 0 0 0 0 0 0 0 0 0 0 0 0 0 0 0 0 0
0 0 0 0 0 0 0 0 0 0 0 0 0 0 0 0 0 0 0 0 0 0 0 0 0 0 0 0 0 0 0 0 0 0 0 0 0 0 0 0 0 0 0
0 0 0 0 0 0 0 0 0 0 0 0 0 0 0 0 0 0 0 0 0 0 0 0 0 0 0 0 0 0 0 0 0 0 0 0 0 0 0 0 0 0 0
0 0 0 0 0 0 0 0 0 0 0 0 0 0 0 0 0 0 0 0 0 0 0 0 0 0 0 0 0 0 0 0 0 0 0 0 0 0 0 0 0 0 0
0 0 0 0 0 0 0 0 0 0 0 0 0 0 0 0 0 0 0 0 0 0 0 0 0 0 0 0 0 0 0 0 0 0 0 0 0 0 0 0 0 0 0
0 0 0 0 0 0 0 0 0 0 0 0 0 0 0 0 0 0 0 0 0 0 0 0 0 0 0 0 0 0 0 0 0 0 0 0 0 0 0 0 0 0 0
0 0 0 0 0 0 0 0 0 0 0 0 0 0 0 0 0 0 0 0 0 0 0 0 0 0 0 0 0 0 0 0 0 0 0 0 0 0 0 0 0 0 0
0 0 0 0 0 0 0 0 0 0 0 0 0 0 0 0 0 0 0 0 0 0 0 0 0 0 0 0 0 0 0 0 0 0 0 0 0 0 0 0 0 0 0
0 0 0 0 0 0 0 0 0 0 0 0 0 0 0 0 0 0 0 0 0 0 0 0 0 0 0 0 0 0 0 0 0 0 0 0 0 0 0 0 0 0 0
0 0 0 0 0 0 0 0 0 0 0 0 0 0 0 0 0 0 0 0 0 0 0 0 0 0 0 0 0 0 0 0 0 0 0 0 0 0 0 0 0 0 0
0 0 0 0 0 0 0 0 0 0 0 0 0 0 0 0 0 0 0 0 0 0 0 0 0 0 0 0 0 0 0 0 0 0 0 0 0 0 0 0 0 0 0
0 0 0 0 0 0 0 0 0 0 0 0 0 0 0 0 0 0 0 0 0 0 0 0 0 0 0 0 0 0 0 0 0 0 0 0 0 0 0 0 0 0 0
0 0 0 0 0 0 0 0 0 0 0 0 0 0 0 0 0 0 0 0 0 0 0 0 0 0 0 0 0 0 0 0 0 0 0 0 0 0 0 0 0 0 0
0 0 0 0 0 0 0 0 0 0 0 0 0 0 0 0 0 0 0 0 0 0 0 0 0 0 0 0 0 0 0 0 0 0 0 0 0 0 0 0 0 0 0
0 0 0 0 0 0 0 0 0 0 0 0 0 0 0 0 0 0 0 0 0 0 0 0 0 0 0 0 0 0 0 0 0 0 0 0 0 0 0 0 0 0 0
0 0 0 0 0 0 0 0 0 0 0 0 0 0 0 0 0 0 0 0 0 0 0 0 0 0 0 0 0 0 0 0 0 0 0 0 0 0 0 0 0 0 0
Wind_Speed
20 12 11 11 11 11 11 11 10 9 9 6 6 5 4 3 4 4 6 8 9 9 8 7 7 6 5 4 3 3 5 5 3 2 3 3 4 4 4 4 5 6 6
12 11 11 11 13 13 12 11 11 9 9 6 5 4 6 5 4 4 7 8 9 9 9 8 6 5 5 4 3 3 3 3 4 2 2 2 2 2 3 2 3 4 3
16 14 13 13 11 12 13 11 10 9 8 9 8 8 6 5 3 5 5 6 9 9 8 8 7 6 4 4 3 3 4 3 3 3 3 2 1 2 2 2 2 2 2
12 12 11 9 9 9 8 8 8 8 9 10 10 10 7 5 4 4 5 6 8 8 8 8 7 6 5 5 4 3 3 4 2 2 3 2 2 1 2 2 2 3 3
7 6 5 5 6 7 8 8 9 9 8 7 8 8 8 7 6 6 7 7 6 6 7 7 7 6 4 5 5 4 4 3 3 2 2 2 1 1 2 4 5 4 4
3 6 8 10 10 10 10 10 11 10 9 8 7 7 11 11 11 9 7 6 4 4 5 6 6 5 4 4 4 4 4 3 3 2 2 2 2 2 3 4 6 7 6
10 12 12 12 11 11 11 11 12 11 9 9 7 7 9 10 9 8 7 7 5 4 4 5 4 4 4 4 4 3 3 2 2 2 1 2 2 2 3 3 5 6 5
12 12 12 11 11 11 11 10 11 10 9 10 10 8 8 6 6 7 6 5 5 4 4 4 4 4 4 4 3 3 3 3 2 2 0 1 1 2 2 3 4 7 6
12 12 12 12 11 11 10 10 10 9 10 11 11 10 9 8 8 7 6 5 4 5 5 5 5 5 5 5 5 4 4 4 3 3 2 1 2 2 2 3 3 5 9
11 12 11 11 11 11 11 11 11 12 11 10 8 9 8 8 8 8 8 6 5 6 6 6 6 6 6 6 6 5 4 5 4 2 3 3 3 4 3 3 4 4 7
10 10 10 11 11 12 11 11 11 12 11 10 10 9 9 8 9 8 8 7 7 7 7 7 7 6 6 5 5 5 5 5 4 4 5 5 5 4 4 4 4 5 5
10 10 10 10 10 10 10 10 10 10 10 9 10 10 9 9 10 9 8 8 7 6 6 6 6 6 5 5 5 4 4 4 5 5 6 7 6 7 6 5 6 6 6
9 9 9 9 9 9 9 9 9 9 9 9 10 10 10 10 9 8 7 7 7 6 5 5 5 5 4 4 3 3 3 4 4 5 6 8 8 8 7 8 7 7 7
7 8 8 7 7 7 8 8 8 8 9 10 10 10 9 8 8 7 6 6 5 5 5 4 4 4 3 3 3 3 3 4 6 6 7 8 8 9 9 8 8 8 9
7 7 7 6 7 7 7 8 8 8 9 10 10 9 8 7 7 7 6 6 5 5 5 5 4 3 2 1 2 2 4 5 7 8 8 8 12 13 10 9 9 9 9
6 7 7 7 6 6 7 7 8 8 9 10 9 8 7 7 7 6 6 6 6 5 5 5 4 3 3 4 5 4 3 6 7 9 9 10 10 11 14 15 16 16 13
6 6 6 6 6 6 7 8 8 8 9 8 7 7 6 6 6 6 6 5 5 4 4 4 4 3 4 6 6 9 5 7 7 8 8 8 9 12 9 13 17 17 19
7 7 7 7 6 6 7 7 7 8 8 7 6 5 6 6 5 5 5 4 3 3 3 3 3 2 3 5 7 10 7 7 8 8 9 9 10 10 11 12 12 12 13
7 7 7 7 6 6 6 7 6 6 6 5 4 4 5 6 5 5 4 3 3 3 2 2 2 2 3 6 8 9 7 7 9 9 9 10 10 12 14 13 12 13 11
8 8 7 8 7 5 5 7 6 5 5 4 4 4 5 5 5 4 3 3 3 3 2 3 3 3 4 8 10 10 5 7 8 9 9 12 12 14 16 11 10 11 10
8 8 8 7 6 5 5 6 5 4 3 4 5 5 5 5 4 4 3 3 3 3 3 3 4 4 5 8 10 11 6 7 8 8 8 8 13 16 16 13 9 11 12
8 8 7 6 5 4 5 5 3 2 3 5 6 5 4 4 4 4 3 3 3 3 3 4 5 4 5 6 8 12 11 10 7 8 8 9 15 16 15 11 11 14 11
7 6 7 6 4 3 3 3 1 2 4 5 5 4 4 4 3 3 3 2 2 1 2 2 4 5 5 6 9 11 14 15 9 8 13 15 15 14 10 11 14 10 6
6 5 6 5 3 3 3 2 2 4 5 5 4 3 3 2 2 1 1 1 0 0 1 2 4 5 6 6 7 8 8 11 9 9 11 14 12 10 10 9 8 6 6
4 4 5 4 3 3 3 2 3 4 5 5 3 2 2 2 1 1 1 2 3 3 2 2 3 5 6 7 11 8 7 7 7 8 6 5 7 8 8 8 7 6 6
5 5 4 4 3 3 3 3 3 4 5 4 2 2 2 1 1 1 2 3 4 5 5 5 5 5 6 10 11 11 12 12 12 7 5 6 7 7 7 8 7 6 7
Wind_Direction
225 211 205 197 190 188 186 186 186 176 166 161 155 144 123 88 72 80 96 100 102 101 99 99 88 83 87 92 101 95 71 44 17 75 62 44 46 59 52 56 65 59 51
228 213 205 199 196 193 187 184 185 176 170 158 128 103 96 84 75 81 84 96 102 104 105 105 104 98 99 91 86 108 102 53 27 85 91 42 5 17 33 24 55 48 34
224 215 207 205 196 193 186 183 175 163 151 130 113 105 89 78 77 90 91 95 102 101 107 114 114 113 113 108 101 109 121 118 52 48 115 123 241 311 329 334 6 5 0
229 219 209 200 193 185 162 153 145 138 133 132 137 138 131 130 133 123 115 109 105 108 111 113 114 118 122 122 114 99 109 120 113 67 53 91 144 175 317 303 297 305 298
240 218 192 160 129 120 119 116 112 107 107 110 120 118 116 118 125 122 119 107 101 106 116 119 119 121 120 117 112 106 102 104 122 123 117 104 84 136 212 280 295 292 271
53 79 85 95 95 95 98 101 102 95 93 95 102 123 130 136 139 135 126 113 106 101 107 112 112 117 117 119 121 120 119 118 120 131 147 159 181 210 213 254 286 296 293
76 84 87 89 92 92 94 97 101 101 102 100 96 111 126 133 134 131 128 126 118 107 107 109 113 114 118 124 124 118 117 120 121 150 181 197 215 210 213 249 278 284 291
75 80 83 85 87 86 87 93 99 104 104 104 102 102 108 112 115 117 123 121 118 114 112 107 105 101 101 100 92 80 73 72 66 53 33 252 259 226 222 242 279 295 289
73 75 74 74 77 78 78 85 93 92 91 98 105 106 105 108 110 108 103 100 103 108 101 93 85 78 78 81 81 72 65 64 52 36 22 347 313 299 270 251 246 275 295
72 72 72 73 73 75 75 75 81 85 85 87 92 98 99 104 107 105 100 96 89 88 89 84 82 78 77 82 83 78 67 62 41 17 2 342 319 313 304 288 271 255 273
73 74 75 74 76 77 78 81 83 85 85 86 88 91 90 92 94 93 92 91 87 89 91 94 93 90 86 83 84 77 62 49 25 6 347 328 318 307 302 294 282 271 265
71 75 78 80 80 81 82 83 85 88 90 92 92 89 89 89 88 88 88 90 90 91 99 103 102 98 92 85 82 70 53 34 10 349 337 325 321 309 299 291 285 282 273
74 73 72 75 77 78 81 83 85 89 91 93 93 89 87 89 91 92 92 93 94 93 93 98 101 101 96 83 70 60 39 13 348 332 323 316 314 306 301 296 289 283 284
83 80 76 72 73 74 79 84 82 85 90 92 92 91 92 94 95 95 91 88 90 90 86 88 93 93 84 68 48 31 10 346 330 320 312 307 302 294 294 296 293 292 292
88 88 88 82 78 78 79 84 86 86 92 93 92 91 92 93 91 87 84 82 81 82 80 78 71 58 41 26 23 2 344 330 323 320 316 309 306 309 310 310 306 302 297
99 97 96 92 89 91 92 89 87 87 90 92 94 94 92 91 89 87 85 81 72 66 63 56 45 28 17 9 18 8 334 322 319 318 318 314 309 314 316 315 312 309 306
105 106 103 98 95 94 98 94 93 92 91 92 92 93 93 92 92 95 85 76 67 62 55 41 33 24 10 30 21 3 347 323 316 313 312 313 311 315 308 312 312 308 303
109 114 113 107 98 95 92 92 91 92 91 88 86 94 100 99 93 87 80 70 61 56 47 34 28 33 23 22 5 350 341 324 319 314 307 305 307 309 316 318 311 307 304
106 109 110 108 100 94 96 95 89 89 92 93 94 100 108 105 98 90 79 63 60 48 36 30 27 16 340 341 343 347 333 325 322 318 315 314 311 310 316 319 311 308 307
99 105 105 101 94 84 88 92 88 85 86 90 97 102 106 107 102 93 74 57 63 53 42 29 6 343 326 328 337 343 332 326 324 320 318 317 313 314 318 318 310 309 314
102 104 101 95 90 85 87 88 87 85 92 100 99 96 95 99 98 83 69 73 70 53 30 7 344 337 329 330 334 339 339 327 321 319 320 316 313 314 315 314 306 306 311
104 104 101 93 84 82 88 86 79 85 106 107 102 99 95 95 100 95 83 71 67 50 19 356 345 338 334 330 331 334 336 335 325 320 316 312 313 316 316 316 311 313 315
105 103 104 96 76 70 88 91 87 121 117 109 106 102 95 90 105 113 106 78 58 43 0 347 339 333 334 332 334 336 336 338 335 319 317 318 318 322 322 320 320 322 321
105 103 96 86 64 52 69 92 111 125 126 125 122 116 113 109 104 112 134 147 189 305 319 323 324 324 328 335 340 337 332 332 332 325 318 318 320 328 329 328 330 331 328
98 93 93 86 71 66 67 73 101 122 126 131 134 133 142 165 195 240 235 232 236 225 247 283 293 311 322 323 324 327 327 325 322 320 319 332 338 342 341 338 337 338 340
101 97 93 92 84 82 72 63 92 124 131 136 154 181 201 217 230 277 308 285 271 285 275 275 287 294 296 314 326 332 333 333 334 336 338 339 339 339 337 336 336 338 345